SL-16 DEB

Satellite information

Favourite Embed

Satellite Type and Status

DEBRISIN ORBIT

Key statistics

Satellite SL-16 DEB at a glance.

Uptime

11882

Days in orbit

Revolutions

≈ 14.3

Per day

Orbit

LEO

Low Earth Orbit

Inclination

70.8

Latest

Satellite identification and parameters

Extended collection of information and parameters for SL-16 DEB.

Object identification

Identified? True

Debris? True

Object name: SL-16 DEB

International designator: 1992-093GK

Object number (NORAD): 22500

Object ID (CCSDS): 22500

Country: COMMONWEALTH OF INDEPENDENT STATES (CIS)

Current information (Y/N): Y

RCS size: SMALL

Orbital parameters

Period: 100.815 minutes

Inclination: 70.8477 deg

SMA: 7175.357 km

Apoapsis: 841.648 km

Periapsis: 752.795 km

RAAN: 60.7803 deg

Eccentricy: 0.0061916

Argument of periapsis: 298.2041 deg

Mean anomaly: 61.2843 deg

Mean motion: 14.2835952 rev/day

Mean motion (dot): 0.0000049 rev/day2

B* drag term: 0.00021187 1/REarth

Two-line elements (TLE)

Creation date: July 6, 2025, 6:05 p.m.

Reference frame: TEME

Reference center: EARTH

Epoch: July 6, 2025, 1:52 a.m. UTC

TLE line 0: 0 SL-16 DEB

TLE line 1: 1 22500U 92093GK 25187.07816521 .00000490 00000-0 21187-3 0 9990

TLE line 2: 2 22500 70.8477 60.7803 0061916 298.2041 61.2843 14.28359520680969

Live tracking on map

Real-time ground track for satellite SL-16 DEB.

In-orbit conjunctions

A list of the most updated potential collisions computed for object SL-16 DEB.

Target Orbit TCA Probability of collision Miss distance Type
CZ-6A R/B LEO 2025-07-09 17:40:36 0.0002499744 522.0 (m) ROCKET BODY
COSMOS 2251 DEB LEO 2025-06-30 19:20:42 0.0001591202 164.0 (m) DEBRIS
THORAD AGENA D DEB SSO 2025-03-05 16:58:46 0.0002076442 83.0 (m) DEBRIS

Associated space launch

Second generation ELING satellite

SL-16 DEB was lifted into orbit during the mission ‘Zenit-2 | Tselina-2 12’, on board a Zenit-2 space rocket.

The launch took place on Dec. 25, 1992, 5:56 a.m. from 45/1.

For more information about the launch, click the button.

Launch to space Zenit-2 | Tselina-2 12
Zenit-2 | Tselina-2 12

Agency: N/A

Status: Launch Successful

Launch date: Dec. 25, 1992, 5:56 a.m. UTC

Rocket: Zenit-2

Launch pad: 45/1

Location: Baikonur Cosmodrome, Republic of Kazakhstan

...

Latest news about this satellite

There are no fresh news available about this satellite. Check back as we update our databases every day.


Newsletter sign-up

Weekly statistics, charts and insights to help you stay on top of the space industry.